When you browse on this site, cookies collect data to enhance your experience and personalize the content and advertising you see.
Visit our Privacy Policy to learn more. By continuing to use the site, you agree to this use of cookies and data.
  • In Schweiz
  • Länderverzeichnis
  • Für 7 Tage
  • Wassertemperatur
  • Wetterkarte
  • Widgets
  • user-avatar
    Anmelden

    Stündliche Wetter Puerto Ayacucho

    Heute, 23 Oktober, Mittwoch

    Zeit Temperatur Niederschläge Wind Luftdruck Luftfeuchtigkeit
    00:00 +26°C° 1.5 mm 1 m/S 749 mmHg 91%
    01:00 +26°C° 1.5 mm 1 m/S 749 mmHg 92%
    02:00 +26°C° 0.5 mm 1 m/S 749 mmHg 93%
    03:00 +26°C° 0.5 mm 1 m/S 749 mmHg 93%
    04:00 +26°C° 0.5 mm 1 m/S 749 mmHg 93%
    05:00 +26°C° 1.3 mm 1 m/S 750 mmHg 93%
    06:00 +26°C° 1.3 mm 2 m/S 750 mmHg 94%
    07:00 +25°C° 1.3 mm 3 m/S 751 mmHg 95%
    08:00 +26°C° 0.4 mm 2 m/S 751 mmHg 92%
    09:00 +27°C° 0.4 mm 2 m/S 751 mmHg 89%
    10:00 +27°C° 0.4 mm 1 m/S 751 mmHg 87%
    11:00 +29°C° 0 mm 1 m/S 750 mmHg 80%
    12:00 +30°C° 0 mm 1 m/S 749 mmHg 73%
    13:00 +31°C° 0 mm 1 m/S 748 mmHg 67%
    14:00 +31°C° 0 mm 1 m/S 748 mmHg 69%
    15:00 +31°C° 0 mm 1 m/S 748 mmHg 71%
    16:00 +31°C° 0 mm 1 m/S 748 mmHg 73%
    17:00 +30°C° 0.1 mm 1 m/S 748 mmHg 76%
    18:00 +28°C° 0.1 mm 1 m/S 749 mmHg 79%
    19:00 +25°C° 0.1 mm 0 m/S 749 mmHg 82%
    20:00 +27°C° 0 mm 1 m/S 749 mmHg 83%
    21:00 +27°C° 0 mm 1 m/S 749 mmHg 84%
    22:00 +27°C° 0 mm 1 m/S 750 mmHg 84%
    23:00 +26°C° 0.1 mm 1 m/S 749 mmHg 85%

    Morgen, 24 Oktober, Donnerstag

    Zeit Temperatur Niederschläge Wind Luftdruck Luftfeuchtigkeit
    00:00 +26°C° 0.1 mm 1 m/S 749 mmHg 86%
    01:00 +26°C° 0.1 mm 1 m/S 748 mmHg 87%
    02:00 +26°C° 0 mm 1 m/S 749 mmHg 87%
    03:00 +25°C° 0 mm 1 m/S 749 mmHg 88%
    04:00 +25°C° 0 mm 1 m/S 749 mmHg 88%
    05:00 +26°C° 0 mm 1 m/S 749 mmHg 87%
    06:00 +27°C° 0 mm 1 m/S 750 mmHg 86%
    07:00 +27°C° 0 mm 1 m/S 750 mmHg 85%
    08:00 +29°C° 0 mm 1 m/S 750 mmHg 79%
    09:00 +31°C° 0 mm 1 m/S 750 mmHg 73%
    10:00 +33°C° 0 mm 1 m/S 751 mmHg 66%
    11:00 +33°C° 0.2 mm 1 m/S 750 mmHg 64%
    12:00 +35°C° 0.2 mm 2 m/S 749 mmHg 62%
    13:00 +35°C° 0.2 mm 2 m/S 747 mmHg 60%
    14:00 +34°C° 0.9 mm 1 m/S 747 mmHg 64%
    15:00 +33°C° 0.9 mm 1 m/S 747 mmHg 68%
    16:00 +33°C° 0.9 mm 1 m/S 747 mmHg 72%
    17:00 +31°C° 1.1 mm 1 m/S 748 mmHg 76%
    18:00 +30°C° 1.1 mm 1 m/S 748 mmHg 81%
    19:00 +28°C° 1.1 mm 1 m/S 748 mmHg 85%
    20:00 +28°C° 1.1 mm 1 m/S 749 mmHg 87%
    21:00 +27°C° 1.1 mm 1 m/S 749 mmHg 89%
    22:00 +26°C° 1.1 mm 1 m/S 749 mmHg 91%
    23:00 +26°C° 0.2 mm 1 m/S 749 mmHg 91%

    übermorgen, 25 Oktober, Freitag

    Zeit Temperatur Niederschläge Wind Luftdruck Luftfeuchtigkeit
    00:00 +26°C° 0.2 mm 1 m/S 749 mmHg 91%
    01:00 +26°C° 0.2 mm 1 m/S 749 mmHg 90%
    02:00 +26°C° 0.2 mm 1 m/S 749 mmHg 91%
    03:00 +26°C° 0.2 mm 1 m/S 749 mmHg 92%
    04:00 +26°C° 0.2 mm 2 m/S 749 mmHg 92%
    05:00 +26°C° 0.6 mm 2 m/S 750 mmHg 93%
    06:00 +26°C° 0.6 mm 2 m/S 751 mmHg 94%
    07:00 +26°C° 0.6 mm 2 m/S 752 mmHg 94%
    08:00 +26°C° 0.2 mm 2 m/S 752 mmHg 93%
    09:00 +27°C° 0.2 mm 2 m/S 752 mmHg 91%
    10:00 +27°C° 0.2 mm 2 m/S 752 mmHg 90%
    11:00 +28°C° 0.4 mm 2 m/S 751 mmHg 86%
    12:00 +29°C° 0.4 mm 2 m/S 751 mmHg 82%
    13:00 +30°C° 0.4 mm 3 m/S 750 mmHg 79%
    14:00 +30°C° 0 mm 2 m/S 749 mmHg 79%
    15:00 +30°C° 0 mm 1 m/S 749 mmHg 79%
    16:00 +29°C° 0 mm 1 m/S 749 mmHg 78%
    17:00 +27°C° 0.3 mm 0 m/S 749 mmHg 82%
    18:00 +26°C° 0.3 mm 0 m/S 750 mmHg 85%
    19:00 +25°C° 0.3 mm 0 m/S 750 mmHg 88%
    20:00 +25°C° 0.4 mm 0 m/S 750 mmHg 89%
    21:00 +25°C° 0.4 mm 0 m/S 751 mmHg 90%
    22:00 +27°C° 0.4 mm 1 m/S 751 mmHg 91%
    23:00 +24°C° 0 mm 0 m/S 750 mmHg 92%

    26 Oktober, Samstag

    Zeit Temperatur Niederschläge Wind Luftdruck Luftfeuchtigkeit
    00:00 +24°C° 0 mm 0 m/S 750 mmHg 92%
    01:00 +24°C° 0 mm 0 m/S 750 mmHg 93%
    02:00 +24°C° 0 mm 0 m/S 750 mmHg 93%
    03:00 +23°C° 0 mm 0 m/S 750 mmHg 94%
    04:00 +25°C° 0 mm 1 m/S 750 mmHg 94%
    05:00 +26°C° 0 mm 1 m/S 750 mmHg 92%
    06:00 +27°C° 0 mm 1 m/S 751 mmHg 90%
    07:00 +27°C° 0 mm 1 m/S 752 mmHg 88%
    08:00 +29°C° 0 mm 1 m/S 752 mmHg 81%
    09:00 +31°C° 0 mm 1 m/S 752 mmHg 74%
    10:00 +32°C° 0 mm 1 m/S 752 mmHg 66%
    11:00 +33°C° 0.4 mm 1 m/S 751 mmHg 66%
    12:00 +33°C° 0.4 mm 1 m/S 750 mmHg 66%
    13:00 +33°C° 0.4 mm 1 m/S 749 mmHg 65%
    14:00 +32°C° 2 mm 1 m/S 749 mmHg 71%
    15:00 +31°C° 2 mm 1 m/S 749 mmHg 77%
    16:00 +27°C° 2 mm 0 m/S 748 mmHg 83%
    17:00 +29°C° 1.1 mm 1 m/S 749 mmHg 86%
    18:00 +28°C° 1.1 mm 1 m/S 749 mmHg 88%
    19:00 +27°C° 1.1 mm 1 m/S 750 mmHg 91%
    20:00 +27°C° 0.1 mm 1 m/S 750 mmHg 91%
    21:00 +27°C° 0.1 mm 1 m/S 750 mmHg 92%
    22:00 +27°C° 0.1 mm 1 m/S 751 mmHg 92%
    23:00 +26°C° 0 mm 1 m/S 750 mmHg 92%

    27 Oktober, Sonntag

    Zeit Temperatur Niederschläge Wind Luftdruck Luftfeuchtigkeit
    00:00 +26°C° 0 mm 1 m/S 750 mmHg 92%
    01:00 +24°C° 0 mm 0 m/S 749 mmHg 92%
    02:00 +26°C° 0 mm 1 m/S 749 mmHg 92%
    03:00 +26°C° 0 mm 1 m/S 749 mmHg 92%
    04:00 +26°C° 0 mm 1 m/S 749 mmHg 92%
    05:00 +26°C° 0 mm 1 m/S 750 mmHg 91%
    06:00 +27°C° 0 mm 1 m/S 750 mmHg 89%
    07:00 +28°C° 0 mm 1 m/S 751 mmHg 87%
    08:00 +29°C° 0 mm 1 m/S 751 mmHg 81%
    09:00 +30°C° 0 mm 1 m/S 751 mmHg 75%
    10:00 +32°C° 0 mm 2 m/S 751 mmHg 68%
    11:00 +33°C° 0.1 mm 1 m/S 750 mmHg 66%
    12:00 +33°C° 0.1 mm 1 m/S 749 mmHg 63%
    13:00 +34°C° 0.1 mm 1 m/S 748 mmHg 61%
    14:00 +34°C° 0.4 mm 1 m/S 748 mmHg 63%
    15:00 +31°C° 0.4 mm 0 m/S 748 mmHg 66%
    16:00 +31°C° 0.4 mm 0 m/S 748 mmHg 69%
    17:00 +30°C° 0.9 mm 0 m/S 748 mmHg 74%
    18:00 +30°C° 0.9 mm 1 m/S 749 mmHg 79%
    19:00 +29°C° 0.9 mm 1 m/S 749 mmHg 83%
    20:00 +28°C° 0.6 mm 1 m/S 749 mmHg 85%
    21:00 +28°C° 0.6 mm 1 m/S 750 mmHg 86%
    22:00 +28°C° 0.6 mm 1 m/S 750 mmHg 88%
    23:00 +27°C° 0.1 mm 1 m/S 749 mmHg 89%

    28 Oktober, Montag

    Zeit Temperatur Niederschläge Wind Luftdruck Luftfeuchtigkeit
    00:00 +27°C° 0.1 mm 1 m/S 749 mmHg 90%
    01:00 +25°C° 0.1 mm 0 m/S 749 mmHg 91%
    02:00 +26°C° 0.7 mm 1 m/S 749 mmHg 92%
    03:00 +26°C° 0.7 mm 1 m/S 749 mmHg 92%
    04:00 +26°C° 0.7 mm 1 m/S 749 mmHg 93%
    05:00 +26°C° 0.4 mm 1 m/S 749 mmHg 91%
    06:00 +25°C° 0.4 mm 0 m/S 750 mmHg 90%
    07:00 +25°C° 0.4 mm 0 m/S 751 mmHg 88%
    08:00 +29°C° 0.2 mm 1 m/S 751 mmHg 82%
    09:00 +31°C° 0.2 mm 1 m/S 751 mmHg 75%
    10:00 +32°C° 0.2 mm 1 m/S 750 mmHg 69%
    11:00 +33°C° 0.7 mm 1 m/S 750 mmHg 67%
    12:00 +33°C° 0.7 mm 1 m/S 749 mmHg 64%
    13:00 +34°C° 0.7 mm 1 m/S 748 mmHg 62%
    14:00 +33°C° 1 mm 1 m/S 748 mmHg 65%
    15:00 +33°C° 1 mm 1 m/S 747 mmHg 68%
    16:00 +31°C° 1 mm 0 m/S 747 mmHg 70%
    17:00 +31°C° 1.7 mm 1 m/S 748 mmHg 77%
    18:00 +29°C° 1.7 mm 2 m/S 748 mmHg 83%
    19:00 +27°C° 1.7 mm 3 m/S 749 mmHg 89%
    20:00 +26°C° 1.3 mm 3 m/S 749 mmHg 90%
    21:00 +26°C° 1.3 mm 2 m/S 749 mmHg 92%
    22:00 +25°C° 1.3 mm 2 m/S 749 mmHg 93%
    23:00 +25°C° 0.2 mm 1 m/S 749 mmHg 93%

    29 Oktober, Dienstag

    Zeit Temperatur Niederschläge Wind Luftdruck Luftfeuchtigkeit
    00:00 +26°C° 0.2 mm 1 m/S 749 mmHg 93%
    01:00 +26°C° 0.2 mm 1 m/S 749 mmHg 93%
    02:00 +26°C° 0.1 mm 1 m/S 749 mmHg 93%
    03:00 +24°C° 0.1 mm 0 m/S 749 mmHg 93%
    04:00 +24°C° 0.1 mm 0 m/S 749 mmHg 93%
    05:00 +26°C° 0 mm 1 m/S 749 mmHg 91%
    06:00 +27°C° 0 mm 1 m/S 750 mmHg 90%
    07:00 +27°C° 0 mm 1 m/S 751 mmHg 89%
    08:00 +29°C° 0 mm 2 m/S 751 mmHg 82%
    09:00 +30°C° 0 mm 2 m/S 751 mmHg 76%
    10:00 +32°C° 0 mm 2 m/S 751 mmHg 69%
    11:00 +32°C° 0.4 mm 2 m/S 750 mmHg 68%
    12:00 +33°C° 0.4 mm 1 m/S 749 mmHg 67%
    13:00 +33°C° 0.4 mm 1 m/S 748 mmHg 66%
    14:00 +32°C° 1.4 mm 1 m/S 748 mmHg 70%
    15:00 +31°C° 1.4 mm 1 m/S 747 mmHg 74%
    16:00 +30°C° 1.4 mm 2 m/S 747 mmHg 78%
    17:00 +29°C° 1 mm 2 m/S 748 mmHg 82%
    18:00 +28°C° 1 mm 2 m/S 748 mmHg 86%
    19:00 +27°C° 1 mm 2 m/S 749 mmHg 89%
    Mehr zeigen